Regional Weather Roundup
Issued by NWS

Home | Current Version | Previous Version | Graphics & Text | Print | Product List | Glossary On
Versions: 1 2 3 4 5 6 7 8 9 10 11 12 13 14 15 16 17 18 19 20 21 22 23 24 25 26 27 28 29 30 31 32 33 34 35 36 37 38 39 40 41 42 43 44 45 46 47 48 49 50
596
ASUS43 KOAX 220010
RWRNE

WEATHER ROUNDUP FOR NEBRASKA
NATIONAL WEATHER SERVICE OMAHA NE
700 PM CDT THU MAY 21 2015

NOTES: SATELLITE DATA IS BEING USED TO AUGMENT CLOUD COVER ABOVE
       12000 FEET.
       "FAIR" INDICATES FEW OR NO CLOUDS BELOW 12,000 FEET WITH NO
       SIGNIFICANT WEATHER AND/OR OBSTRUCTIONS TO VISIBILITY.

  * THESE STATIONS DO NOT REPORT WEATHER SUCH AS RAIN...SNOW OR FOG.

NEZ001>004-019>022-054>056-220100-
NEBRASKA PANHANDLE

CITY           SKY/WX    TMP DP  RH WIND       PRES   REMARKS
SCOTTSBLUFF    CLOUDY    55  43  63 SE14      30.14F
6HR MIN TEMP:  53; 6HR MAX TEMP:  57;

ALLIANCE       CLOUDY    55  44  66 SE13      30.15F
6HR MIN TEMP:  52; 6HR MAX TEMP:  57;

CHADRON        CLOUDY    59  44  57 S12       30.14F
6HR MIN TEMP:  56; 6HR MAX TEMP:  59;

KIMBALL          N/A    N/A N/A N/A MISG        N/A
SIDNEY         CLOUDY    55  44  66 SE13      30.15F
6HR MIN TEMP:  52; 6HR MAX TEMP:  57;

$$

NEZ057>060-069>072-079>082-220100-
SOUTHWEST NEBRASKA

CITY           SKY/WX    TMP DP  RH WIND       PRES   REMARKS
NORTH PLATTE   CLOUDY    61  40  45 S6        30.17F
6HR MIN TEMP:  56; 6HR MAX TEMP:  64;

IMPERIAL       CLOUDY    57  43  59 SE12      30.17F
6HR MIN TEMP:  52; 6HR MAX TEMP:  58;

LEXINGTON      SUNNY     62  40  43 S6        30.18F
MCCOOK         PTSUNNY   62  41  46 SE10      30.17F
6HR MIN TEMP:  58; 6HR MAX TEMP:  63;

OGALLALA       CLOUDY    58  43  57 SE9       30.17F
$$

NEZ005>010-023>029-035>040-094-220100-
NORTH CENTRAL NEBRASKA

CITY           SKY/WX    TMP DP  RH WIND       PRES   REMARKS
VALENTINE      SUNNY     66  28  24 SE13      30.16F
6HR MIN TEMP:  60; 6HR MAX TEMP:  66;

AINSWORTH      SUNNY     65  32  29 S6        30.17F
BROKEN BOW     SUNNY     64  37  36 S10       30.18F
6HR MIN TEMP:  59; 6HR MAX TEMP:  65;

O`NEILL        SUNNY     68  36  31 SW3       30.17F
ORD            SUNNY     65  35  33 S9        30.17F
6HR MIN TEMP:  60; 6HR MAX TEMP:  66;

THEDFORD       SUNNY     64  37  36 S7        30.17F
$$

NEZ041-046>049-061>064-073>077-083>087-220100-
SOUTH CENTRAL NEBRASKA

CITY           SKY/WX    TMP DP  RH WIND       PRES   REMARKS
GRAND ISLAND   SUNNY     64  34  32 CALM      30.19F
6HR MIN TEMP:  60; 6HR MAX TEMP:  67;

AURORA         SUNNY     65  34  31 SW3       30.19F
HASTINGS       SUNNY     64  34  32 SE6       30.19F
6HR MIN TEMP:  59; 6HR MAX TEMP:  65;

HEBRON         SUNNY     66  32  27 S5        30.19F
HOLDREGE       SUNNY     63  34  34 S7        30.18F
KEARNEY *      SUNNY     63  34  34 S7        30.18F
YORK           SUNNY     64  39  39 CALM      30.19F
$$

NEZ011>018-030>034-042>045-220100-
NORTHEAST NEBRASKA

CITY           SKY/WX    TMP DP  RH WIND       PRES   REMARKS
NORFOLK        SUNNY     70  36  28 W5        30.16F
6HR MIN TEMP:  66; 6HR MAX TEMP:  72;

ALBION         SUNNY     66  34  29 CALM      30.18F
BLAIR          SUNNY     71  35  26 W7        30.15F
COLUMBUS *     SUNNY     68  36  30 W6        30.21S
FREMONT        SUNNY     71  36  27 SW7       30.16F
TEKAMAH        SUNNY     74  37  26 W13       30.13F
6HR MIN TEMP:  71; 6HR MAX TEMP:  77;

WAYNE          SUNNY     71  36  27 W7        30.15S
$$

NEZ050>053-065>068-078-088>093-220100-
SOUTHEAST NEBRASKA

CITY           SKY/WX    TMP DP  RH WIND       PRES   REMARKS
LINCOLN        SUNNY     70  37  29 W8        30.18F
6HR MIN TEMP:  66; 6HR MAX TEMP:  71;

OMAHA EPPLEY   MOSUNNY   72  40  31 VRB6      30.14F
6HR MIN TEMP:  68; 6HR MAX TEMP:  74;

BEATRICE       SUNNY     66  38  35 CALM      30.18F
FALLS CITY     SUNNY     68  40  35 NW3       30.17F
6HR MIN TEMP:  65; 6HR MAX TEMP:  70;

NEBRASKA CITY  SUNNY     67  32  27 W7        30.17F
PLATTSMOUTH    SUNNY     69  33  25 W3        30.16F
$$

NEZ044-045-051>053-067-220100-
OMAHA AREA

CITY           SKY/WX    TMP DP  RH WIND       PRES   REMARKS
OMAHA EPPLEY   MOSUNNY   72  40  31 VRB6      30.14F
6HR MIN TEMP:  68; 6HR MAX TEMP:  74;

BLAIR          SUNNY     71  35  26 W7        30.15F
FREMONT        SUNNY     71  36  27 SW7       30.16F
MILLARD        SUNNY     71  41  33 NW5       30.15F
OFFUTT AFB     SUNNY     70  39  32 W6        30.14F
PLATTSMOUTH    SUNNY     69  33  25 W3        30.16F
WAHOO          FAIR      71  35  26 SW3       30.16F
$$



USA.gov is the U.S. government's official web portal to all federal, state and local government web resources and services.